FENGYUN 1C DEB, 38144

Orbit data source: Space-Track

FENGYUN 1C DEB, 38144 is space debris in SSO originally from a launch on Mon, 10 May 1999 UTC launched from the Taiyaun Space Center, China (TSC). Fengyun 1C debris stems from the Chinese weather satellite Fengyun-1C, which was intentionally destroyed by a Chinese anti-satellite missile in 2007. This event dramatically increased the amount of space debris, with thousands of trackable fragments posing hazards to satellites and human spaceflight. The Fengyun 1C debris cloud has become a focal point in discussions about space sustainability and the need for international regulations to prevent the creation of new debris.

Loading next visibility...
Identifier
38144, 1999-025EQR
Orbit
SSO
Country
Flag of CNCN / PRC
Related business
Manufacturer
Unknown
Mission
Spacecraft
Bus & Motor
Unknown
Mass
Unknown
Launch date (UTC)
1999-05-10 (27 years ago)
Launch vehicle
Unknown
Launch site
Taiyaun Space Center, China (TSC)
Object type
Payload
Rocket body
Debris
Shape & HBR
Unknown shape, 0.1 m
Radar Cross Section
Small (<0.1 m²)

Expand to show TLE details & history
Last TLE update: 4 days ago

TLE from 4 days ago
0 FENGYUN 1C DEB
1 38144U 99025EQR 25346.30673077  .00002337  00000-0  24534-2 0  9993
2 38144  98.9688 170.8072 0290328 192.7812 166.5857 13.59024242610310
Epoch: 2025-12-12T07:21Z
TLE epoch observation values (Epoch: 2025-12-12T07:21:41.538Z)
Latitude
-0.00005°
Longitude
-20.86611°
Altitude
1,251.898 km
Speed
7.126 km/s
True Right ascension
11h 23m 13s
True Declination
0° 00' 00"
Sunlit
Object was in daylight at epoch
Visualization orbit readout
Latitude
Unknown
Longitude
Unknown
Altitude
Unknown
Speed
Unknown
Apparent Right ascension
Unknown
Apparent Declination
Unknown
Sunlit
N/A
Visualization observer readout
Local Sidereal Time
23:52:47
Azimuth
Unknown
Elevation
Unknown
Doppler factor
Unknown
Orbital elements
Apogee altitude
1,251.757 km
Perigee altitude
821.222 km
Semi-major axis
7,414.627 km
Eccentricity
0.02903
Inclination
98.9688°
RAAN
170.8072°
Arg. of periapsis
192.7812°
True anomaly
167.33114°
Mean anomaly
166.5857°
Eccentric anomaly
166.961°
Mean motion
3.39945 °/min
Orbital period
105.9 mins
BSTAR
0.0024534
Loading maneuver chart data...
Computing Atmospheric mass density...

Documentation

Showing up to 5 results
|